Regional Weather Roundup
Issued by NWS Charleston, WV

Home | Current Version | Previous Version | Graphics & Text | Print | Product List | Glossary On
Versions: 1 2 3 4 5 6 7 8 9 10 11 12 13 14 15 16 17 18 19 20 21 22 23 24 25 26 27 28 29 30 31 32 33 34 35 36 37 38 39 40 41 42 43 44 45 46 47 48 49 50
000
ASUS41 KRLX 031010
RWRRLX
West Virginia Regional Weather Roundup
National Weather Service Charleston WV
600 AM EDT FRI JUL 03 2015

Note: "fair" indicates few or no clouds below 12,000 feet with no
significant weather and/or obstructions to visibility.

WVZ003-031100-
Northern Panhandle of West Virginia

CITY           SKY/WX    TMP DP  RH WIND       PRES   REMARKS
WHEELING       CLEAR     56  53  90 CALM      29.97R
$$

WVZ009-031100-
Northwest West Virginia

CITY           SKY/WX    TMP DP  RH WIND       PRES   REMARKS
PARKERSBURG    CLOUDY    64  61  90 E3        29.95S
$$

WVZ006-031100-
Western West Virginia

CITY           SKY/WX    TMP DP  RH WIND       PRES   REMARKS
HUNTINGTON     CLOUDY    66  65  96 CALM      29.88S FOG
$$

WVZ015-031100-
West Central West Virginia

CITY           SKY/WX    TMP DP  RH WIND       PRES   REMARKS
CHARLESTON     CLOUDY    65  63  93 NE3       29.90R FOG
$$

WVZ022-031-031100-
North Central West Virginia

CITY           SKY/WX    TMP DP  RH WIND       PRES   REMARKS
CLARKSBURG     MOCLDY    60  58  92 CALM      29.95S
MORGANTOWN     MOCLDY    57  54  88 CALM      29.97S FOG
$$

WVZ025-035-042-045-031100-
Southern West Virginia

CITY           SKY/WX    TMP DP  RH WIND       PRES   REMARKS
BECKLEY        CLOUDY    64  62  93 SE7       29.97S
LOGAN          CLOUDY    68  66  94 CALM      29.88S
BLUEFIELD      CLOUDY    66  62  87 E3        29.99S FOG
LEWISBURG      CLOUDY    64  62  93 NE3       29.99R FOG
$$

WVZ047-031100-
Northern Mountains of West Virginia

CITY           SKY/WX    TMP DP  RH WIND       PRES   REMARKS
ELKINS         CLOUDY    59  56  89 CALM      30.00S FOG
$$

WVZ052-031100-
Eastern Panhandle of West Virginia

CITY           SKY/WX    TMP DP  RH WIND       PRES   REMARKS
MARTINSBURG    FOG       63  62  97 SE3       29.96R VSB 1/4
PETERSBURG     CLOUDY    55  53  92 CALM      29.99S FOG
$$


USA.gov is the U.S. government's official web portal to all federal, state and local government web resources and services.